Date String (YYYY-MM-DD hh:mm:ss) UTC,Instrument flags,Ambient pressure (hPa),Sample flow (lpm),Bypass flow (lpm),Sample temperature (°C),Ambient temperature (°C),ASC tube jacket temperature (°C),LED temperature (°C),Box temperature (°C),Sample RH (%),Span deviation,Mass concentration (μg/m³),Mass concentration (μg/m³),Mass concentration (μg/m³)
DateTimeUTC,F1_M11,P_M11,Q1_M11,Q2_M11,T1_M11,T2_M11,T3_M11,T4_M11,T5_M11,U1_M11,ZSPAN_M11,X2_M11,X0_M11,X1_M11
2022-01-13 17:00:00,,0831.4,4.98,0.00,27.5,26.8,00.0,36.2,29.4,10.6,0000.0,0000.01,0000.05,0000.00
2022-01-13 17:01:00,,0831.4,5.02,0.00,27.5,26.9,00.0,36.3,29.4,10.5,0000.0,0000.02,0000.05,0000.00
2022-01-13 17:02:00,,0831.4,4.99,0.00,27.6,26.9,00.0,36.3,29.5,10.7,0000.0,0000.02,0000.05,0000.00
2022-01-13 17:03:00,,0831.4,4.99,0.00,27.6,26.9,00.0,36.3,29.5,10.3,0000.0,0000.02,0000.05,0000.00
2022-01-13 17:04:00,,0831.4,5.00,0.00,27.6,27.0,00.0,36.3,29.5,10.1,0000.0,0000.02,0000.05,0000.00
2022-01-13 17:05:00,,0831.4,5.01,0.00,27.6,27.0,00.0,36.4,29.5,10.2,0000.0,0000.02,0000.05,0000.00
2022-01-13 17:06:00,,0831.4,4.99,0.00,27.6,27.0,00.0,36.4,29.5,10.1,0000.0,0000.01,0000.05,0000.00
2022-01-13 17:07:00,,0831.4,4.99,0.00,27.7,27.1,00.0,36.4,29.6,10.0,0000.0,0000.01,0000.03,0000.00
2022-01-13 17:08:00,,0831.4,5.01,0.00,27.7,27.1,00.0,36.4,29.6,10.1,0000.0,0000.00,0000.00,0000.00
2022-01-13 17:09:00,,0831.4,5.01,0.00,27.7,27.1,00.0,36.5,29.6,10.4,0000.0,0000.00,0000.00,0000.00
2022-01-13 17:10:00,,0831.4,4.99,0.00,27.7,27.1,00.0,36.5,29.6,10.1,0000.0,0000.00,0000.00,0000.00
2022-01-13 17:11:00,,0831.4,5.01,0.00,27.8,27.1,00.0,36.5,29.6,10.0,0000.0,0000.00,0000.00,0000.00
2022-01-13 17:12:00,,0831.4,5.00,0.00,27.8,27.1,00.0,36.5,29.7,10.0,0000.0,0000.00,0000.00,0000.00
2022-01-13 17:13:00,,0831.4,5.01,0.00,27.8,27.2,00.0,36.6,29.7,10.1,0000.0,0000.00,0000.00,0000.00
2022-01-13 17:14:00,,0831.4,4.99,0.00,27.8,27.2,00.0,36.6,29.7,10.0,0000.0,0000.00,0000.00,0000.00
2022-01-13 17:15:00,,0831.4,5.00,0.00,27.8,27.2,00.0,36.6,29.7,09.8,0000.0,0000.01,0000.04,0000.00
2022-01-13 17:16:00,,0831.4,5.01,0.00,27.8,27.2,00.0,36.6,29.7,09.8,0000.0,0000.01,0000.04,0000.00
2022-01-13 17:17:00,,0831.4,5.00,0.00,27.9,27.3,00.0,36.7,29.7,09.7,0000.0,0000.01,0000.04,0000.00
2022-01-13 17:18:00,,0831.4,5.01,0.00,27.9,27.3,00.0,36.7,29.7,09.8,0000.0,0000.02,0000.06,0000.00
2022-01-13 17:19:00,,0831.4,5.00,0.00,27.9,27.3,00.0,36.7,29.8,09.6,0000.0,0000.02,0000.08,0000.00
2022-01-13 17:20:00,,0831.4,4.99,0.00,27.9,27.3,00.0,36.7,29.8,09.6,0000.0,0000.02,0000.08,0000.00
2022-01-13 17:21:00,,0831.4,5.01,0.00,27.9,27.3,00.0,36.7,29.8,09.6,0000.0,0000.03,0000.49,0000.00
2022-01-13 17:22:00,,0831.4,5.01,0.00,28.0,27.3,00.0,36.8,29.8,09.7,0000.0,0000.03,0000.99,0000.00
2022-01-13 17:23:00,,0831.4,4.99,0.00,28.0,27.4,00.0,36.8,29.9,09.6,0000.0,0000.04,0001.02,0000.00
2022-01-13 17:24:00,,0831.4,5.00,0.00,28.0,27.4,00.0,36.8,29.9,09.4,0000.0,0000.04,0001.02,0000.00
2022-01-13 17:25:00,,0831.4,5.00,0.00,28.0,27.4,00.0,36.8,29.9,09.4,0000.0,0000.04,0001.01,0000.00
2022-01-13 17:26:00,,0831.4,5.01,0.00,28.0,27.4,00.0,36.8,29.9,09.7,0000.0,0000.03,0000.97,0000.00
2022-01-13 17:27:00,,0831.4,4.99,0.00,28.0,27.4,00.0,36.9,29.9,09.6,0000.0,0000.03,0000.97,0000.00
2022-01-13 17:28:00,,0831.4,5.01,0.00,28.1,27.5,00.0,36.9,29.9,09.7,0000.0,0000.03,0000.97,0000.00
2022-01-13 17:29:00,,0831.4,5.01,0.00,28.1,27.5,00.0,36.9,30.0,09.6,0000.0,0000.03,0000.97,0000.00
2022-01-13 17:30:00,,0831.4,4.99,0.00,28.1,27.5,00.0,36.9,30.0,09.4,0000.0,0000.03,0001.00,0000.00
2022-01-13 17:31:00,,0831.4,5.01,0.00,28.1,27.5,00.0,36.9,30.0,09.8,0000.0,0000.03,0001.00,0000.00
2022-01-13 17:32:00,,0831.4,4.98,0.00,28.1,27.5,00.0,37.0,30.0,10.0,0000.0,0000.04,0000.85,0000.00
2022-01-13 17:33:00,,0831.4,5.01,0.00,28.2,27.5,00.0,37.0,30.0,09.8,0000.0,0000.05,0000.12,0000.00
2022-01-13 17:34:00,,0831.3,4.99,0.00,28.2,27.5,00.0,37.0,30.0,09.4,0000.0,0000.03,0000.09,0000.00
2022-01-13 17:35:00,,0831.3,5.01,0.00,28.2,27.6,00.0,37.0,30.1,09.4,0000.0,0000.03,0000.09,0000.00
2022-01-13 17:36:00,,0831.3,4.99,0.00,28.2,27.6,00.0,37.0,30.1,09.2,0000.0,0000.04,0000.79,0000.00
2022-01-13 17:37:00,,0831.3,5.00,0.00,28.3,27.6,00.0,37.0,30.1,09.2,0000.0,0000.04,0001.32,0000.00
2022-01-13 17:38:00,,0831.2,4.99,0.00,28.3,27.6,00.0,37.1,30.1,09.2,0000.0,0000.04,0001.32,0000.00
2022-01-13 17:39:00,,0831.3,5.00,0.00,28.3,27.6,00.0,37.1,30.2,09.4,0000.0,0000.04,0001.32,0000.00
2022-01-13 17:40:00,,0831.2,5.01,0.00,28.3,27.7,00.0,37.1,30.2,09.6,0000.0,0000.04,0001.32,0000.00
2022-01-13 17:41:00,,0831.2,4.99,0.00,28.4,27.7,00.0,37.1,30.2,09.5,0000.0,0000.02,0001.26,0000.00
2022-01-13 17:42:00,,0831.2,5.02,0.00,28.4,27.7,00.0,37.2,30.2,09.4,0000.0,0000.02,0001.26,0000.00
2022-01-13 17:43:00,,0831.2,4.99,0.00,28.4,27.7,00.0,37.2,30.2,09.4,0000.0,0000.02,0001.25,0000.00
2022-01-13 17:44:00,,0831.2,4.99,0.00,28.4,27.8,00.0,37.2,30.3,09.4,0000.0,0000.01,0001.24,0000.00
2022-01-13 17:45:00,,0831.2,5.01,0.00,28.5,27.8,00.0,37.2,30.3,09.4,0000.0,0000.01,0001.24,0000.01
2022-01-13 17:46:00,,0831.1,5.00,0.00,28.5,27.8,00.0,37.2,30.3,09.4,0000.0,0000.01,0001.24,0000.01
2022-01-13 17:47:00,,0831.1,5.00,0.00,28.5,27.8,00.0,37.3,30.4,09.2,0000.0,0000.01,0000.65,0000.01
2022-01-13 17:48:00,,0831.1,4.99,0.00,28.5,27.9,00.0,37.3,30.4,09.3,0000.0,0000.01,0000.02,0000.01
2022-01-13 17:49:00,,0831.2,5.01,0.00,28.6,27.9,00.0,37.3,30.4,09.0,0000.0,0000.01,0000.02,0000.01
2022-01-13 17:50:00,,0831.1,5.00,0.00,28.6,27.9,00.0,37.3,30.4,08.9,0000.0,0000.02,0000.04,0000.01
2022-01-13 17:51:00,,0831.1,5.00,0.00,28.6,27.9,00.0,37.4,30.4,09.2,0000.0,0000.02,0000.06,0000.01
2022-01-13 17:52:00,,0831.0,5.00,0.00,28.6,27.9,00.0,37.4,30.5,09.4,0000.0,0000.02,0000.06,0000.01
2022-01-13 17:53:00,,0830.9,4.99,0.00,28.7,28.0,00.0,37.4,30.5,09.3,0000.0,0000.02,0000.06,0000.00
2022-01-13 17:54:00,,0831.0,5.01,0.00,28.7,28.0,00.0,37.4,30.5,09.3,0000.0,0000.02,0000.06,0000.00
2022-01-13 17:55:00,,0831.0,4.99,0.00,28.7,28.0,00.0,37.5,30.6,09.2,0000.0,0000.02,0000.06,0000.00
2022-01-13 17:56:00,,0831.0,5.00,0.00,28.7,28.0,00.0,37.5,30.6,09.3,0000.0,0000.02,0000.05,0000.00
2022-01-13 17:57:00,,0830.9,5.01,0.00,28.8,28.1,00.0,37.5,30.6,09.3,0000.0,0000.02,0000.05,0000.00
2022-01-13 17:58:00,,0831.0,4.99,0.00,28.8,28.1,00.0,37.5,30.6,09.1,0000.0,0000.01,0000.05,0000.00
2022-01-13 17:59:00,,0830.9,5.01,0.00,28.8,28.1,00.0,37.6,30.7,09.2,0000.0,0000.01,0000.05,0000.00
